SCP
0 0 0 0 0 0 0 0 0 0 0 0 0 0 0 0 0 0 0 0 0 0 0 0 0 0 0 0 0 0 0 0 0 0 0 0 0 0 0 0 0 0 0 0 0 0 0
0 0 0 0 0 0 0 0 0 0 0 0 0 0 0 0 0 0 0 0 0 0 0 0 0 0 0 0 0 0 0 0 0 0 0 0 0 0 0 0 0 0 0 0 0 0 0
0 0 0 0 0 0 0 0 0 0 0 0 0 0 0 0 0 0 0 0 0 0 0 0 0 0 0 0 0 0 0 0 0 0 0 0 0 0 0 0 0 0 0 0 0 0 0
0 0 0 0 0 0 0 0 0 0 0 0 0 0 0 0 0 0 0 0 0 0 0 0 0 0 0 0 0 0 0 0 0 0 0 0 0 0 0 0 0 0 0 0 0 0 0
0 0 0 0 0 0 0 0 0 0 0 0 0 0 0 0 0 0 0 0 0 0 0 0 0 0 0 0 0 0 0 0 0 0 0 0 0 0 0 0 0 0 0 0 0 0 0
0 0 0 0 0 0 0 0 0 0 0 0 0 0 0 0 0 0 0 0 0 0 0 0 0 0 0 0 0 0 0 0 0 0 0 0 0 0 0 0 0 0 0 0 0 0 0
0 0 0 0 0 0 0 0 0 0 0 0 0 0 0 0 0 0 0 0 0 0 0 0 0 0 0 0 0 0 0 0 0 0 0 0 0 0 0 0 0 0 0 0 0 0 0
0 0 0 0 0 0 0 0 0 0 0 0 0 0 0 0 0 0 0 0 0 0 0 0 0 0 0 0 0 0 0 0 0 0 0 0 0 0 0 0 0 0 0 0 0 0 0
0 0 0 0 0 0 0 0 0 0 0 0 0 0 0 0 0 0 0 0 0 0 0 0 0 0 0 0 0 0 0 0 0 0 0 0 0 0 0 0 0 0 0 0 0 0 0
0 0 0 0 0 0 0 0 0 0 0 0 0 0 0 0 0 0 0 0 0 0 0 0 0 0 0 0 0 0 0 0 0 0 0 0 0 0 0 0 0 0 0 0 0 0 0
0 0 0 0 0 0 0 0 0 0 0 0 0 0 0 0 0 0 0 0 0 0 0 0 0 0 0 0 0 0 0 0 0 0 0 0 0 0 0 0 0 0 0 0 0 0 0
0 0 0 0 0 0 0 0 0 0 0 0 0 0 0 0 0 0 0 0 0 0 0 0 0 0 0 0 0 0 0 0 0 0 0 0 0 0 0 0 0 0 0 0 -0 0 0
0 0 0 0 0 0 0 0 0 0 0 0 0 0 0 0 0 0 0 0 0 0 0 0 0 0 0 0 0 0 0 0 0 0 0 0 -0 0 0 0 0 0 0 -0 -0 0 0
0 0 0 0 0 0 0 0 0 0 0 0 0 0 0 -0 0 0 0 0 0 0 0 0 0 0 0 0 0 0 0 0 0 0 0 -0 -0 -0 -0 -0 -0 0 0 0 0 0 0
0 0 0 0 0 0 0 0 0 0 0 0 0 0 0 0 0 0 0 0 0 0 0 0 0 0 0 0 0 0 0 -0 0 0 -0 0 0 -0 -0 -0 -0 -0 -0 -0 0 0 0
0 0 0 0 -0 0 0 0 0 0 0 0 0 0 0 0 0 0 0 0 0 0 0 0 0 0 0 -0 0 0 -0 -0 -0 -0 -0 -0 -0 -0 -0 0 -0 -0 -0 -0 0 0 0
-0 -0 0 0 -0 0 0 0 0 0 0 0 0 0 0 0 0 0 0 0 0 0 0 0 0 0 -0 -0 -0 -0 -0 0 0 -0 -0 0 0 -0 0 -0 -0 0 0 0 0 0 0
-0 -0 -0 0 -0 -0 0 0 0 0 0 0 0 0 0 0 0 0 0 0 0 0 0 0 -0 -0 -0 -0 -0 0 -0 0 0 -0 0 0 0 -0 0 0 0 0 0 0 0 0 0
-0 0 0 0 0 0 0 0 0 0 0 0 0 0 0 0 0 0 0 0 0 0 0 0 -0 -0 0 0 0 -0 -0 0 -0 0 -0 0 0 0 0 0 0 0 0 0 0 0 0
-0 0 0 0 0 0 0 0 0 0 0 0 0 0 0 0 0 0 0 0 0 -0 -0 -0 0 -0 0 0 0 0 0 -0 0 0 0 0 0 0 0 0 0 0 0 0 0 0 0
0 0 0 0 0 0 0 0 0 0 0 0 0 0 0 0 0 0 0 0 0 0 -0 -0 -0 -0 0 0 -0 0 -0 0 0 -0 -0 0 0 0 0 0 0 0 0 0 0 0 0
0 0 0 0 0 -0 0 0 0 0 0 0 0 0 0 0 0 0 0 0 0 0 -0 -0 -0 -0 -0 0 0 0 0 0 0 -0 0 0 0 0 0 0 0 0 0 0 0 0 0
0 0 0 0 0 -0 0 0 0 0 0 0 0 0 0 0 0 0 0 0 -0 -0 0 0 -0 0 0 0 0 0 -0 -0 -0 0 0 0 0 0 0 0 0 0 0 0 0 0 0
0 0 0 0 0 -0 0 0 0 0 0 0 0 0 0 0 0 0 0 0 -0 -0 -0 -0 0 -0 0 0 0 0 0 0 0 0 0 0 0 0 0 0 0 0 0 0 0 0 0
0 0 0 0 0 -0 -0 0 0 0 0 0 0 0 0 0 0 0 0 0 0 -0 0 -0 0 0 0 0 0 0 0 0 0 0 0 0 0 0 0 0 0 0 0 0 0 0 0
0 0 0 0 0 0 0 0 0 0 0 0 0 0 0 0 -0 0 0 0 -0 0 0 -0 0 0 0 0 0 0 0 0 0 0 0 0 0 0 0 0 0 0 0 0 0 0 0
0 0 0 0 0 0 0 0 0 0 0 0 0 0 0 0 0 0 -0 -0 0 0 0 0 0 0 0 0 0 0 0 0 0 0 0 0 0 0 0 0 0 0 0 0 0 0 0
0 0 0 0 0 0 -0 0 0 0 0 0 0 0 0 0 0 0 0 -0 0 0 0 0 0 0 0 0 0 0 0 0 0 0 0 0 0 0 0 0 -0 0 0 0 0 0 0
0 0 0 0 0 0 0 0 0 0 0 0 0 0 0 0 0 0 0 0 0 0 0 0 0 0 0 0 0 0 0 0 0 0 0 0 0 0 0 0 0 0 0 0 0 0 0
Wind_Speed_500mb
44 38 42 43 42 37 39 40 37 39 34 29 29 29 25 20 17 17 16 15 13 14 19 22 21 19 24 24 37 10 2 11 13 8 34 32 36 34 31 22 42 47 37 56 54 54 56
47 40 41 46 47 42 40 40 37 34 32 33 32 31 29 24 19 16 17 16 15 15 14 20 22 19 24 32 22 32 24 19 7 6 21 33 35 36 44 41 38 27 54 52 54 51 46
55 49 43 47 46 43 41 40 38 35 29 34 37 32 31 28 24 18 15 16 18 19 17 18 24 23 25 36 11 26 33 34 28 21 20 22 37 39 20 30 34 50 32 32 51 53 34
59 56 49 46 43 44 43 44 39 36 34 31 31 32 29 30 26 22 16 18 18 18 21 21 19 16 21 24 38 23 18 21 43 31 31 32 22 32 47 26 26 15 21 28 38 32 48
64 61 52 45 43 44 44 46 44 39 35 33 31 32 31 27 28 24 20 20 21 19 23 22 16 18 18 21 42 43 38 26 19 18 17 30 29 31 25 22 14 19 25 45 29 37 32
57 65 53 44 44 47 46 47 46 44 37 34 30 29 33 28 26 26 24 19 17 23 22 15 21 10 31 27 23 30 41 44 36 31 24 22 22 19 23 23 35 24 24 26 35 35 35
57 60 57 49 51 51 50 46 44 41 38 36 28 30 33 29 25 27 26 20 15 9 33 27 19 24 4 19 14 24 32 35 34 32 27 32 17 36 43 43 36 35 38 32 31 33 37
60 58 60 55 52 53 49 46 40 36 34 34 28 28 32 28 25 28 26 17 18 7 16 60 54 43 48 13 18 30 28 35 39 32 30 28 39 50 33 36 36 41 39 37 32 34 42
55 51 48 59 51 53 51 48 42 38 31 30 30 26 29 25 27 32 36 34 33 28 14 16 63 62 44 32 36 31 43 49 28 35 37 38 47 32 38 37 40 42 45 38 34 35 15
61 58 57 38 49 52 53 51 48 41 37 31 28 24 23 24 23 31 33 19 34 28 9 11 14 17 53 20 16 50 37 46 26 39 34 30 41 39 37 44 39 42 46 40 36 40 15
64 62 64 44 45 57 55 55 50 44 41 33 29 23 24 26 10 23 17 14 7 8 11 17 13 9 14 27 7 22 66 54 36 33 21 19 28 39 45 46 39 45 27 33 43 22 8
67 60 63 58 39 62 53 52 51 45 41 35 31 27 24 29 30 18 17 5 14 4 15 11 12 15 16 24 16 18 55 51 41 34 34 30 32 31 29 41 40 41 26 27 35 16 15
70 68 65 55 54 35 33 49 50 46 40 36 33 32 30 24 28 35 18 32 5 11 4 9 8 14 27 21 22 16 36 41 19 13 21 13 38 20 7 9 41 41 22 18 13 14 7
69 73 60 51 47 29 21 55 49 48 42 37 37 43 33 34 25 28 39 4 13 13 13 7 7 16 15 15 15 29 18 32 35 24 3 19 19 33 23 16 21 42 33 6 9 6 10
73 66 60 48 48 20 57 53 50 46 46 38 35 47 45 45 38 38 34 9 9 7 7 10 9 12 10 10 12 28 28 14 21 36 15 11 17 20 24 27 21 10 23 38 13 15 8
73 69 64 48 50 63 63 32 49 49 46 40 51 52 55 47 51 46 11 22 11 12 13 9 17 23 17 22 16 24 24 14 31 34 24 5 9 11 17 23 32 17 23 24 14 11 13
74 71 65 61 50 47 66 32 43 55 45 44 52 20 24 52 58 32 13 14 15 31 17 15 22 19 22 19 28 25 17 24 27 29 29 12 13 5 5 20 32 14 11 18 6 5 12
74 78 68 68 46 59 56 24 43 36 42 47 37 6 41 56 13 7 13 11 8 18 40 19 26 37 24 23 30 21 25 14 36 28 19 22 8 7 16 6 25 10 21 34 4 4 5
72 78 70 66 46 46 44 39 54 50 55 64 33 12 50 69 11 13 12 12 14 6 16 16 16 23 14 14 14 29 29 25 37 23 32 21 11 2 11 17 7 12 10 7 10 5 7
69 75 77 70 63 47 55 52 39 60 57 55 21 10 16 37 17 11 20 14 12 31 36 31 27 32 14 16 21 3 20 13 27 33 30 4 8 14 8 12 21 9 9 10 10 2 4
66 70 76 72 66 55 55 43 20 55 58 67 19 10 17 10 17 20 11 9 14 11 30 36 15 23 17 13 13 21 25 11 15 26 23 10 9 19 12 36 30 25 22 16 10 9 3
69 64 73 70 65 65 49 35 32 57 54 53 21 8 20 5 31 32 30 15 18 12 8 13 25 17 33 20 16 22 19 14 12 13 16 12 11 20 17 13 21 19 23 24 18 10 13
66 61 68 69 64 63 48 42 7 51 60 18 24 22 4 8 14 14 13 19 21 23 23 41 25 29 21 27 17 31 36 32 16 12 16 10 7 11 8 6 11 6 15 21 16 16 15
63 58 64 65 63 67 51 45 40 41 48 44 27 19 10 7 12 16 25 29 34 29 32 15 41 27 8 7 10 18 27 24 10 4 15 13 5 5 5 3 3 4 5 6 22 15 18
60 55 63 64 65 65 59 40 47 20 46 48 40 22 10 4 10 19 25 5 2 10 22 26 15 11 19 18 5 9 5 7 9 10 12 17 6 2 4 5 9 8 5 2 10 11 13
58 54 59 62 67 66 67 44 40 27 35 41 51 44 11 3 5 11 10 7 11 5 5 15 17 11 15 4 4 8 6 6 6 4 10 7 12 6 8 3 5 4 2 11 7 4 13
53 51 55 57 59 60 62 51 43 16 43 40 37 47 26 7 21 21 5 4 10 3 2 8 12 6 20 6 9 7 8 15 12 12 9 9 6 7 3 4 10 6 8 3 8 6 11
53 51 56 60 55 59 58 46 35 8 38 36 44 36 38 12 15 15 7 8 10 9 5 12 13 7 5 8 4 4 6 12 10 15 14 10 14 9 6 4 12 18 9 6 7 6 9
49 48 54 59 53 55 54 41 38 11 38 38 41 38 34 18 10 15 20 24 30 32 5 33 7 20 14 6 4 3 4 5 9 8 13 13 11 10 14 9 3 15 9 18 14 21 28
Wind_Direction_500mb
288 283 285 278 268 278 284 293 294 291 287 283 284 273 269 277 274 282 291 297 294 285 268 251 242 227 204 210 232 239 279 102 25 255 215 227 237 242 244 251 238 242 243 241 241 253 268
301 278 278 282 263 269 277 285 294 299 284 280 283 278 262 263 266 275 288 290 285 273 271 250 239 222 206 236 241 236 236 249 280 284 224 230 238 246 268 247 257 254 243 257 264 248 238
304 297 273 276 264 261 272 276 282 292 296 278 280 280 263 256 259 266 284 289 285 276 267 256 242 235 233 229 237 225 237 244 252 244 266 232 244 266 249 263 293 251 269 243 245 249 241
304 300 288 272 262 256 267 273 275 280 287 289 279 274 269 251 259 258 266 274 268 265 260 260 248 231 247 250 230 235 220 245 247 250 242 245 264 268 265 285 316 282 238 250 239 240 242
295 299 292 271 258 257 263 268 273 273 275 281 282 273 271 255 249 251 256 262 256 258 255 253 252 227 257 259 226 225 222 218 224 244 249 243 246 257 264 253 269 237 234 224 243 237 229
284 290 291 274 254 257 260 261 266 270 272 275 279 271 267 264 242 245 248 270 270 244 253 232 235 238 247 230 228 226 219 223 237 250 265 226 225 235 220 211 223 224 225 239 221 225 230
298 276 282 282 256 254 259 261 260 263 263 266 272 264 258 261 235 235 241 266 273 247 211 196 208 212 143 242 221 212 207 210 222 234 230 227 208 222 218 218 231 256 244 233 241 216 232
311 295 272 273 261 254 253 254 256 258 258 260 264 261 250 249 234 233 233 222 216 232 275 230 238 234 231 281 228 215 189 198 207 219 216 232 228 227 229 236 227 235 251 264 239 233 219
305 300 285 272 261 251 249 245 248 253 253 255 259 259 247 230 223 229 231 237 254 266 258 212 229 236 230 221 229 213 195 203 206 217 214 217 237 234 239 236 240 227 236 241 244 234 242
320 297 298 301 254 250 249 244 243 246 249 247 250 251 227 209 224 230 237 244 261 279 273 210 213 236 221 200 251 227 221 205 223 230 220 235 245 242 235 233 235 239 229 246 246 232 195
319 312 293 294 279 247 246 245 244 241 242 241 237 226 218 201 178 185 207 223 190 186 278 122 165 196 212 183 24 225 204 212 226 222 213 226 227 233 232 240 228 246 228 231 250 256 166
320 314 314 283 275 256 242 239 242 238 234 234 225 208 197 189 201 211 198 200 139 125 248 157 136 179 177 197 212 312 190 208 226 240 238 245 250 236 237 229 248 262 223 281 240 236 206
325 322 313 289 278 254 249 231 240 236 228 227 215 203 198 192 203 218 195 150 125 232 84 183 184 184 215 202 215 224 190 204 204 206 218 231 250 229 148 245 229 221 187 231 226 196 207
327 325 318 304 274 262 299 227 226 234 223 217 213 203 188 172 204 186 160 133 226 236 203 117 187 205 217 208 209 216 210 208 220 232 319 222 239 208 176 196 230 207 197 239 186 188 137
331 328 323 314 258 319 334 227 221 229 217 213 216 198 191 180 201 176 156 207 231 239 182 179 155 209 204 197 234 208 204 204 214 207 217 243 223 158 184 214 201 174 201 233 278 183 104
333 333 330 319 297 273 318 227 223 222 208 201 194 192 203 193 192 178 189 233 226 239 145 187 213 198 191 183 204 201 212 222 217 221 191 210 294 165 201 220 200 213 174 218 225 187 145
337 334 326 329 305 289 303 226 227 225 195 197 192 182 211 212 186 176 218 221 251 241 188 197 231 204 224 182 209 199 207 237 192 196 150 180 229 326 232 189 182 175 210 231 251 202 128
338 338 329 340 316 291 303 266 226 201 194 198 173 171 169 168 180 193 218 205 231 243 210 242 260 270 211 197 203 215 239 226 177 151 186 184 275 237 255 214 199 179 204 211 240 28 45
336 337 337 339 336 309 305 327 221 194 194 186 157 139 177 178 195 204 224 225 225 266 204 211 249 245 251 209 195 208 223 208 161 150 176 172 206 218 342 168 123 204 226 283 296 336 171
329 335 339 340 340 317 301 341 198 192 191 189 162 171 157 196 221 211 211 215 220 224 244 241 262 251 237 243 197 242 227 177 171 182 172 358 214 243 280 123 127 178 211 270 233 353 9
330 334 337 341 338 317 322 335 217 195 188 186 175 201 175 179 213 232 190 223 209 245 218 198 247 242 253 222 216 237 224 185 164 190 150 234 248 250 33 134 152 162 188 240 265 229 59
331 332 335 336 339 334 315 339 316 198 188 187 150 186 168 195 203 209 226 217 208 214 264 227 227 230 233 214 200 210 189 223 177 178 171 224 296 316 72 52 155 165 181 198 225 234 258
329 328 332 336 334 337 318 325 227 189 189 180 175 188 152 204 197 195 213 222 223 208 245 250 272 235 273 219 259 233 192 209 151 176 180 167 279 328 46 70 60 352 200 195 207 210 212
328 326 329 333 337 336 327 305 358 195 201 208 192 170 158 246 247 224 226 213 214 221 226 254 226 197 252 51 123 83 54 57 50 217 184 189 191 311 338 85 139 195 11 248 207 205 211
326 326 329 330 336 334 327 302 329 231 205 214 209 193 170 245 287 278 285 126 127 273 211 220 218 193 259 359 184 123 104 22 17 11 347 182 164 320 123 260 313 139 32 7 183 239 212
326 324 329 329 332 334 336 294 358 197 205 216 223 221 173 93 237 341 350 67 288 209 227 184 226 205 186 265 177 156 170 118 189 309 346 82 95 43 3 143 235 88 17 320 43 316 333
323 322 326 327 329 331 334 298 331 276 209 214 226 227 220 200 264 284 302 144 274 218 106 128 138 122 152 218 204 168 163 160 164 171 163 145 124 172 221 324 312 128 143 311 113 244 333
322 322 325 327 332 329 327 305 316 294 209 216 229 223 208 199 266 268 273 213 239 238 192 165 106 199 147 196 152 248 154 192 143 153 163 158 169 181 123 186 270 141 85 158 168 96 79
319 317 320 324 326 327 327 308 291 183 212 215 222 224 221 223 261 253 289 273 252 252 230 178 278 160 167 143 203 240 230 132 147 168 185 172 198 168 189 202 191 146 92 126 135 130 115
Wind_Speed_850mb
44 38 42 43 42 37 39 40 37 39 34 29 29 29 25 20 17 17 16 15 13 14 19 22 21 19 24 24 37 10 2 11 13 8 34 32 36 34 31 22 42 47 37 56 54 54 56
47 40 41 46 47 42 40 40 37 34 32 33 32 31 29 24 19 16 17 16 15 15 14 20 22 19 24 32 22 32 24 19 7 6 21 33 35 36 44 41 38 27 54 52 54 51 46
55 49 43 47 46 43 41 40 38 35 29 34 37 32 31 28 24 18 15 16 18 19 17 18 24 23 25 36 11 26 33 34 28 21 20 22 37 39 20 30 34 50 32 32 51 53 34
59 56 49 46 43 44 43 44 39 36 34 31 31 32 29 30 26 22 16 18 18 18 21 21 19 16 21 24 38 23 18 21 43 31 31 32 22 32 47 26 26 15 21 28 38 32 48
64 61 52 45 43 44 44 46 44 39 35 33 31 32 31 27 28 24 20 20 21 19 23 22 16 18 18 21 42 43 38 26 19 18 17 30 29 31 25 22 14 19 25 45 29 37 32
57 65 53 44 44 47 46 47 46 44 37 34 30 29 33 28 26 26 24 19 17 23 22 15 21 10 31 27 23 30 41 44 36 31 24 22 22 19 23 23 35 24 24 26 35 35 35
57 60 57 49 51 51 50 46 44 41 38 36 28 30 33 29 25 27 26 20 15 9 33 27 19 24 4 19 14 24 32 35 34 32 27 32 17 36 43 43 36 35 38 32 31 33 37
60 58 60 55 52 53 49 46 40 36 34 34 28 28 32 28 25 28 26 17 18 7 16 60 54 43 48 13 18 30 28 35 39 32 30 28 39 50 33 36 36 41 39 37 32 34 42
55 51 48 59 51 53 51 48 42 38 31 30 30 26 29 25 27 32 36 34 33 28 14 16 63 62 44 32 36 31 43 49 28 35 37 38 47 32 38 37 40 42 45 38 34 35 15
61 58 57 38 49 52 53 51 48 41 37 31 28 24 23 24 23 31 33 19 34 28 9 11 14 17 53 20 16 50 37 46 26 39 34 30 41 39 37 44 39 42 46 40 36 40 15
64 62 64 44 45 57 55 55 50 44 41 33 29 23 24 26 10 23 17 14 7 8 11 17 13 9 14 27 7 22 66 54 36 33 21 19 28 39 45 46 39 45 27 33 43 22 8
67 60 63 58 39 62 53 52 51 45 41 35 31 27 24 29 30 18 17 5 14 4 15 11 12 15 16 24 16 18 55 51 41 34 34 30 32 31 29 41 40 41 26 27 35 16 15
70 68 65 55 54 35 33 49 50 46 40 36 33 32 30 24 28 35 18 32 5 11 4 9 8 14 27 21 22 16 36 41 19 13 21 13 38 20 7 9 41 41 22 18 13 14 7
69 73 60 51 47 29 21 55 49 48 42 37 37 43 33 34 25 28 39 4 13 13 13 7 7 16 15 15 15 29 18 32 35 24 3 19 19 33 23 16 21 42 33 6 9 6 10
73 66 60 48 48 20 57 53 50 46 46 38 35 47 45 45 38 38 34 9 9 7 7 10 9 12 10 10 12 28 28 14 21 36 15 11 17 20 24 27 21 10 23 38 13 15 8
73 69 64 48 50 63 63 32 49 49 46 40 51 52 55 47 51 46 11 22 11 12 13 9 17 23 17 22 16 24 24 14 31 34 24 5 9 11 17 23 32 17 23 24 14 11 13
74 71 65 61 50 47 66 32 43 55 45 44 52 20 24 52 58 32 13 14 15 31 17 15 22 19 22 19 28 25 17 24 27 29 29 12 13 5 5 20 32 14 11 18 6 5 12
74 78 68 68 46 59 56 24 43 36 42 47 37 6 41 56 13 7 13 11 8 18 40 19 26 37 24 23 30 21 25 14 36 28 19 22 8 7 16 6 25 10 21 34 4 4 5
72 78 70 66 46 46 44 39 54 50 55 64 33 12 50 69 11 13 12 12 14 6 16 16 16 23 14 14 14 29 29 25 37 23 32 21 11 2 11 17 7 12 10 7 10 5 7
69 75 77 70 63 47 55 52 39 60 57 55 21 10 16 37 17 11 20 14 12 31 36 31 27 32 14 16 21 3 20 13 27 33 30 4 8 14 8 12 21 9 9 10 10 2 4
66 70 76 72 66 55 55 43 20 55 58 67 19 10 17 10 17 20 11 9 14 11 30 36 15 23 17 13 13 21 25 11 15 26 23 10 9 19 12 36 30 25 22 16 10 9 3
69 64 73 70 65 65 49 35 32 57 54 53 21 8 20 5 31 32 30 15 18 12 8 13 25 17 33 20 16 22 19 14 12 13 16 12 11 20 17 13 21 19 23 24 18 10 13
66 61 68 69 64 63 48 42 7 51 60 18 24 22 4 8 14 14 13 19 21 23 23 41 25 29 21 27 17 31 36 32 16 12 16 10 7 11 8 6 11 6 15 21 16 16 15
63 58 64 65 63 67 51 45 40 41 48 44 27 19 10 7 12 16 25 29 34 29 32 15 41 27 8 7 10 18 27 24 10 4 15 13 5 5 5 3 3 4 5 6 22 15 18
60 55 63 64 65 65 59 40 47 20 46 48 40 22 10 4 10 19 25 5 2 10 22 26 15 11 19 18 5 9 5 7 9 10 12 17 6 2 4 5 9 8 5 2 10 11 13
58 54 59 62 67 66 67 44 40 27 35 41 51 44 11 3 5 11 10 7 11 5 5 15 17 11 15 4 4 8 6 6 6 4 10 7 12 6 8 3 5 4 2 11 7 4 13
53 51 55 57 59 60 62 51 43 16 43 40 37 47 26 7 21 21 5 4 10 3 2 8 12 6 20 6 9 7 8 15 12 12 9 9 6 7 3 4 10 6 8 3 8 6 11
53 51 56 60 55 59 58 46 35 8 38 36 44 36 38 12 15 15 7 8 10 9 5 12 13 7 5 8 4 4 6 12 10 15 14 10 14 9 6 4 12 18 9 6 7 6 9
49 48 54 59 53 55 54 41 38 11 38 38 41 38 34 18 10 15 20 24 30 32 5 33 7 20 14 6 4 3 4 5 9 8 13 13 11 10 14 9 3 15 9 18 14 21 28
Wind_Direction_850mb
288 283 285 278 268 278 284 293 294 291 287 283 284 273 269 277 274 282 291 297 294 285 268 251 242 227 204 210 232 239 279 102 25 255 215 227 237 242 244 251 238 242 243 241 241 253 268
301 278 278 282 263 269 277 285 294 299 284 280 283 278 262 263 266 275 288 290 285 273 271 250 239 222 206 236 241 236 236 249 280 284 224 230 238 246 268 247 257 254 243 257 264 248 238
304 297 273 276 264 261 272 276 282 292 296 278 280 280 263 256 259 266 284 289 285 276 267 256 242 235 233 229 237 225 237 244 252 244 266 232 244 266 249 263 293 251 269 243 245 249 241
304 300 288 272 262 256 267 273 275 280 287 289 279 274 269 251 259 258 266 274 268 265 260 260 248 231 247 250 230 235 220 245 247 250 242 245 264 268 265 285 316 282 238 250 239 240 242
295 299 292 271 258 257 263 268 273 273 275 281 282 273 271 255 249 251 256 262 256 258 255 253 252 227 257 259 226 225 222 218 224 244 249 243 246 257 264 253 269 237 234 224 243 237 229
284 290 291 274 254 257 260 261 266 270 272 275 279 271 267 264 242 245 248 270 270 244 253 232 235 238 247 230 228 226 219 223 237 250 265 226 225 235 220 211 223 224 225 239 221 225 230
298 276 282 282 256 254 259 261 260 263 263 266 272 264 258 261 235 235 241 266 273 247 211 196 208 212 143 242 221 212 207 210 222 234 230 227 208 222 218 218 231 256 244 233 241 216 232
311 295 272 273 261 254 253 254 256 258 258 260 264 261 250 249 234 233 233 222 216 232 275 230 238 234 231 281 228 215 189 198 207 219 216 232 228 227 229 236 227 235 251 264 239 233 219
305 300 285 272 261 251 249 245 248 253 253 255 259 259 247 230 223 229 231 237 254 266 258 212 229 236 230 221 229 213 195 203 206 217 214 217 237 234 239 236 240 227 236 241 244 234 242
320 297 298 301 254 250 249 244 243 246 249 247 250 251 227 209 224 230 237 244 261 279 273 210 213 236 221 200 251 227 221 205 223 230 220 235 245 242 235 233 235 239 229 246 246 232 195
319 312 293 294 279 247 246 245 244 241 242 241 237 226 218 201 178 185 207 223 190 186 278 122 165 196 212 183 24 225 204 212 226 222 213 226 227 233 232 240 228 246 228 231 250 256 166
320 314 314 283 275 256 242 239 242 238 234 234 225 208 197 189 201 211 198 200 139 125 248 157 136 179 177 197 212 312 190 208 226 240 238 245 250 236 237 229 248 262 223 281 240 236 206
325 322 313 289 278 254 249 231 240 236 228 227 215 203 198 192 203 218 195 150 125 232 84 183 184 184 215 202 215 224 190 204 204 206 218 231 250 229 148 245 229 221 187 231 226 196 207
327 325 318 304 274 262 299 227 226 234 223 217 213 203 188 172 204 186 160 133 226 236 203 117 187 205 217 208 209 216 210 208 220 232 319 222 239 208 176 196 230 207 197 239 186 188 137
331 328 323 314 258 319 334 227 221 229 217 213 216 198 191 180 201 176 156 207 231 239 182 179 155 209 204 197 234 208 204 204 214 207 217 243 223 158 184 214 201 174 201 233 278 183 104
333 333 330 319 297 273 318 227 223 222 208 201 194 192 203 193 192 178 189 233 226 239 145 187 213 198 191 183 204 201 212 222 217 221 191 210 294 165 201 220 200 213 174 218 225 187 145
337 334 326 329 305 289 303 226 227 225 195 197 192 182 211 212 186 176 218 221 251 241 188 197 231 204 224 182 209 199 207 237 192 196 150 180 229 326 232 189 182 175 210 231 251 202 128
338 338 329 340 316 291 303 266 226 201 194 198 173 171 169 168 180 193 218 205 231 243 210 242 260 270 211 197 203 215 239 226 177 151 186 184 275 237 255 214 199 179 204 211 240 28 45
336 337 337 339 336 309 305 327 221 194 194 186 157 139 177 178 195 204 224 225 225 266 204 211 249 245 251 209 195 208 223 208 161 150 176 172 206 218 342 168 123 204 226 283 296 336 171
329 335 339 340 340 317 301 341 198 192 191 189 162 171 157 196 221 211 211 215 220 224 244 241 262 251 237 243 197 242 227 177 171 182 172 358 214 243 280 123 127 178 211 270 233 353 9
330 334 337 341 338 317 322 335 217 195 188 186 175 201 175 179 213 232 190 223 209 245 218 198 247 242 253 222 216 237 224 185 164 190 150 234 248 250 33 134 152 162 188 240 265 229 59
331 332 335 336 339 334 315 339 316 198 188 187 150 186 168 195 203 209 226 217 208 214 264 227 227 230 233 214 200 210 189 223 177 178 171 224 296 316 72 52 155 165 181 198 225 234 258
329 328 332 336 334 337 318 325 227 189 189 180 175 188 152 204 197 195 213 222 223 208 245 250 272 235 273 219 259 233 192 209 151 176 180 167 279 328 46 70 60 352 200 195 207 210 212
328 326 329 333 337 336 327 305 358 195 201 208 192 170 158 246 247 224 226 213 214 221 226 254 226 197 252 51 123 83 54 57 50 217 184 189 191 311 338 85 139 195 11 248 207 205 211
326 326 329 330 336 334 327 302 329 231 205 214 209 193 170 245 287 278 285 126 127 273 211 220 218 193 259 359 184 123 104 22 17 11 347 182 164 320 123 260 313 139 32 7 183 239 212
326 324 329 329 332 334 336 294 358 197 205 216 223 221 173 93 237 341 350 67 288 209 227 184 226 205 186 265 177 156 170 118 189 309 346 82 95 43 3 143 235 88 17 320 43 316 333
323 322 326 327 329 331 334 298 331 276 209 214 226 227 220 200 264 284 302 144 274 218 106 128 138 122 152 218 204 168 163 160 164 171 163 145 124 172 221 324 312 128 143 311 113 244 333
322 322 325 327 332 329 327 305 316 294 209 216 229 223 208 199 266 268 273 213 239 238 192 165 106 199 147 196 152 248 154 192 143 153 163 158 169 181 123 186 270 141 85 158 168 96 79
319 317 320 324 326 327 327 308 291 183 212 215 222 224 221 223 261 253 289 273 252 252 230 178 278 160 167 143 203 240 230 132 147 168 185 172 198 168 189 202 191 146 92 126 135 130 115